STARLINK-32149, 60292

Orbit data source: Space-Track

STARLINK-32149, 60292 is a payload satellite owned by SpaceX/Seattle (US) in LEO that was launched on Sun, 28 Jul 2024 UTC via an FALCON 9 launch vehicle from the Air Force Eastern Test Range (AFETR). Payload-class satellites include a variety of spacecraft equipped with specific instruments for various scientific and technological missions. These include communications satellites like Starlink; space stations such as the ISS; scientific satellites like the Hubble; Earth observation satellites from companies like Planet Labs, Umbra, and HawkEye 360; GPS; miniature CubeSats for education and research; and military/defense satellites.

Loading next visibility...
Identifier
60292, 2024-132Q
Orbit
LEO
Country
Flag of USUS
Related business
Manufacturer
SpaceX/Seattle
Mission
Operational Commercial Communications
Bus & Motor
STARLINK V2M, Unknown motor
Mass
730 kg wet, ~700 kg dry
Launch date (UTC)
2024-07-28 (1 year ago)
Launch vehicle
FALCON 9
Launch site
Air Force Eastern Test Range (AFETR)
Object type
Payload
Rocket body
Debris
Shape & HBR
Box + 2 Pan, 17.7 m
Radar Cross Section
33.884 m², Large (>1 m²)

Expand to show TLE details & history
Last TLE update: 14 hours ago

TLE from 14 hours ago
0 STARLINK-32149
1 60292U 24132Q   25308.19101843  .00000878  00000-0  41774-4 0  9996
2 60292  53.1615 275.5285 0001349  88.1410 271.9745 15.30198350 72341
Epoch: 2025-11-04T04:35Z
TLE epoch observation values (Epoch: 2025-11-04T04:35:03.992Z)
Latitude
-0.00004°
Longitude
163.08025°
Altitude
476.088 km
Speed
7.629 km/s
True Right ascension
18h 22m 06s
True Declination
0° 00' 00"
Sunlit
Object was in daylight at epoch
Visualization orbit readout
Latitude
Unknown
Longitude
Unknown
Altitude
Unknown
Speed
Unknown
Apparent Right ascension
Unknown
Apparent Declination
Unknown
Sunlit
N/A
Visualization observer readout
Local Sidereal Time
14:09:05
Azimuth
Unknown
Elevation
Unknown
Doppler factor
Unknown
Orbital elements
Apogee altitude
476.401 km
Perigee altitude
474.552 km
Semi-major axis
6,853.613 km
Eccentricity
0.00013
Inclination
53.1615°
RAAN
275.5285°
Arg. of periapsis
88.141°
True anomaly
271.95905°
Mean anomaly
271.9745°
Eccentric anomaly
271.96678°
Mean motion
3.82528 °/min
Orbital period
94.11 mins
BSTAR
0.000041774
Loading maneuver chart data...
Computing Atmospheric mass density...
Loading historical data...
Loading historical data...
Loading historical data...
Loading historical data...
Loading historical data...
Loading historical data...
Loading historical data...

Documentation

Showing up to 5 results
|